TimePDT,TemperatureF,Dew PointF,Humidity,Sea Level PressureIn,VisibilityMPH,Wind Direction,Wind SpeedMPH,Gust SpeedMPH,PrecipitationIn,Events,Conditions,WindDirDegrees,DateUTC
12:53 AM,46.0,39.9,79,30.32,10.0,SW,8.1,-,N/A,,Partly Cloudy,220,2013-04-09 07:53:00
1:53 AM,44.1,39.0,82,30.34,10.0,South,5.8,-,N/A,,Scattered Clouds,180,2013-04-09 08:53:00
2:30 AM,44.6,41.0,87,30.31,10.0,South,3.5,-,N/A,,Overcast,170,2013-04-09 09:30:00
2:53 AM,44.1,39.9,85,30.32,10.0,South,4.6,-,N/A,,Mostly Cloudy,170,2013-04-09 09:53:00
3:09 AM,44.6,39.2,81,30.30,10.0,South,4.6,-,N/A,,Scattered Clouds,180,2013-04-09 10:09:00
3:53 AM,44.1,39.9,85,30.34,10.0,SSE,6.9,-,N/A,,Scattered Clouds,160,2013-04-09 10:53:00
4:53 AM,44.1,39.9,85,30.35,10.0,SE,5.8,-,N/A,,Scattered Clouds,140,2013-04-09 11:53:00
5:53 AM,44.1,39.0,82,30.35,10.0,SSE,6.9,-,N/A,,Scattered Clouds,150,2013-04-09 12:53:00
6:53 AM,44.1,39.0,82,30.35,10.0,SSE,4.6,-,N/A,,Overcast,160,2013-04-09 13:53:00
7:53 AM,45.0,39.9,82,30.36,10.0,South,3.5,-,N/A,,Overcast,170,2013-04-09 14:53:00
8:53 AM,46.9,39.0,74,30.36,10.0,South,5.8,-,N/A,,Overcast,180,2013-04-09 15:53:00
9:53 AM,48.0,39.0,71,30.37,10.0,South,4.6,-,N/A,,Overcast,190,2013-04-09 16:53:00
10:53 AM,48.9,39.0,69,30.38,10.0,SW,6.9,-,N/A,,Overcast,220,2013-04-09 17:53:00
11:53 AM,50.0,39.9,68,30.38,10.0,Variable,3.5,-,N/A,,Overcast,0,2013-04-09 18:53:00
12:53 PM,51.1,39.0,63,30.37,10.0,South,4.6,-,N/A,,Overcast,190,2013-04-09 19:53:00
1:53 PM,52.0,39.0,61,30.35,10.0,SE,6.9,-,0.00,Rain,Light Rain,140,2013-04-09 20:53:00
2:53 PM,52.0,39.0,61,30.35,10.0,SW,5.8,-,0.00,,Overcast,230,2013-04-09 21:53:00
3:53 PM,53.1,39.9,61,30.33,10.0,SSW,6.9,-,N/A,,Overcast,200,2013-04-09 22:53:00
4:53 PM,53.1,39.9,61,30.32,10.0,SW,3.5,-,N/A,,Overcast,220,2013-04-09 23:53:00
5:53 PM,54.0,39.9,59,30.31,10.0,SSW,5.8,-,N/A,,Overcast,210,2013-04-10 00:53:00
6:53 PM,53.1,39.0,59,30.29,10.0,South,5.8,-,N/A,,Mostly Cloudy,190,2013-04-10 01:53:00
7:53 PM,53.1,39.9,61,30.27,10.0,South,4.6,-,N/A,,Overcast,180,2013-04-10 02:53:00
8:53 PM,53.1,39.9,61,30.27,10.0,SSE,4.6,-,N/A,,Overcast,150,2013-04-10 03:53:00
9:53 PM,53.1,41.0,64,30.26,10.0,SSW,4.6,-,N/A,,Overcast,200,2013-04-10 04:53:00
10:53 PM,53.1,41.0,64,30.25,10.0,South,4.6,-,N/A,,Overcast,190,2013-04-10 05:53:00
11:53 PM,52.0,42.1,69,30.22,10.0,SSW,6.9,-,N/A,,Overcast,200,2013-04-10 06:53:00